Location: Shepherdstown, WV
(39.4326°N, 77.8042°W)
Time: 04:27:04
(UTC-04:00)

Vanguard 1 - Pass Details

Date: 06 October 2021
Orbit: 653 x 3829 km, 34.2° (Epoch: 18 October)

Event Time Altitude Azimuth Distance (km) Brightness Sun altitude
Rises 20:29:42 0° 271° (W) 5,196 15.3 -20.9°
Reaches altitude 10° 20:32:29 10° 269° (W) 4,526 14.6 -21.4°
Maximum altitude 20:46:12 70° 190° (S) 3,147 12.4 -24.0°
Enters shadow 20:58:33 33° 118° (ESE) 4,962 13.0 -26.4°
